Tracking 29892 objects as of 21-Nov-2024
HD Live streaming from Space Station
objects crossing your sky now

STARLINK-4442

Track STARLINK-4442 now!
10-day predictions
STARLINK-4442 is classified as:


NORAD ID: 53480
Int'l Code: 2022-099R
Perigee: 568.8 km
Apogee: 571.3 km
Inclination: 97.7 °
Period: 95.9 minutes
Semi major axis: 6941 km
RCS: Unknown
Launch date: August 12, 2022
Source: United States (US)
Launch site: AIR FORCE WESTERN TEST RANGE (AFWTR)
Your satellite tracking list
Your tracking list is empty




NASA's NSSDC Master Catalog

Two Line Element Set (TLE):
1 53480U 22099R   24325.81079008 -.00007360  00000-0 -56847-3 0  9992
2 53480  97.6553  84.4168 0001835  83.2972 276.8461 15.01294266125127
Source of the keplerian elements: AFSPC